Vorticity
39 38 22 20 30 7 52 18 -21 9 -8 15 11 6 4 6 10 13 12 11 9 9 8 8 8 8 9 9 8 7 8 6 5 5 5 7 7 8 9 4 4 3 1 3
7 -7 -9 1 -2 35 -27 10 -5 40 7 8 -1 15 11 13 8 4 2 5 6 7 6 6 7 10 8 7 7 7 7 5 6 6 5 8 14 4 12 7 3 5 1 14
47 41 28 20 57 44 71 50 16 3 2 5 -0 3 1 0 3 4 3 2 2 3 6 9 9 8 9 8 7 5 6 6 6 6 4 9 5 6 5 3 5 2 16 17
5 17 21 13 14 20 33 -1 -1 10 4 5 6 5 9 6 4 5 4 5 11 12 9 9 8 8 6 5 5 6 7 5 4 7 8 6 7 2 5 1 9 13 13 10
8 9 5 2 6 14 16 3 9 2 4 2 2 2 0 8 8 9 12 10 6 6 6 7 6 6 7 8 6 5 6 8 17 18 14 2 3 3 4 7 21 10 7 4
3 -0 7 9 8 6 0 -1 1 -2 3 10 11 7 9 2 3 4 4 2 7 9 8 7 7 6 5 7 9 10 11 5 2 7 4 4 4 6 6 26 9 4 3 4
7 10 16 8 8 10 10 12 6 8 10 10 8 5 5 6 7 7 9 11 10 10 9 9 9 10 8 3 10 10 6 7 5 3 4 6 7 19 11 8 3 4 5 3
7 1 7 12 10 8 9 12 15 14 10 9 11 11 10 9 11 12 12 11 8 8 7 4 6 7 8 9 7 6 6 5 6 7 6 12 19 8 6 4 6 5 3 1
8 4 7 7 16 14 12 14 15 12 11 10 10 9 10 10 10 9 8 7 3 1 7 12 8 7 5 7 9 7 7 8 6 8 18 10 8 5 6 6 5 4 3 -1
4 1 13 4 15 2 14 6 10 12 14 13 13 10 8 5 5 6 9 14 17 10 7 12 7 9 7 6 9 10 7 6 15 12 8 8 6 6 5 5 3 2 3 1
8 10 4 18 14 -0 5 2 13 8 12 9 8 10 16 14 11 8 7 7 7 8 7 8 9 12 12 10 6 5 13 12 9 9 8 7 6 4 4 0 1 5 5 5
3 6 6 14 13 11 10 9 4 6 4 18 11 9 6 6 7 8 10 12 11 8 8 10 11 9 6 5 12 11 9 9 9 9 6 5 4 3 2 2 3 5 6 8
-4 5 -3 2 7 25 10 9 12 19 21 6 6 6 5 6 9 4 3 7 11 12 12 10 7 3 12 7 10 8 8 12 8 5 5 5 5 2 2 2 7 6 6 3
25 24 12 11 14 0 27 18 16 3 2 7 7 6 9 5 1 3 11 14 12 8 8 3 8 8 8 7 6 11 11 7 6 3 4 5 2 1 4 6 5 3 3 12
13 11 12 23 19 14 12 1 5 7 7 5 7 6 5 2 4 9 11 10 7 6 5 12 6 6 6 8 12 9 9 5 4 6 5 1 3 5 5 5 5 6 12 40
20 8 5 9 8 10 0 1 1 1 -1 3 4 5 7 5 8 12 10 7 6 14 8 4 5 7 10 9 9 8 6 7 6 3 3 3 6 4 5 6 6 13 37 35
5 7 8 5 5 2 -0 1 3 4 5 7 9 8 5 11 12 9 9 17 7 7 2 4 8 10 9 8 8 7 8 3 1 3 3 5 4 5 6 5 11 39 32 21
7 8 7 4 2 5 6 7 7 6 5 7 12 14 13 9 14 16 7 6 4 4 4 10 11 10 9 8 7 6 2 3 4 4 6 4 5 7 4 8 37 35 21 26
4 3 3 4 1 2 6 7 8 12 14 7 6 10 16 15 9 6 6 4 5 7 11 13 11 8 8 6 5 3 4 3 5 6 4 5 10 5 7 34 35 19 24 19
-2 4 9 10 9 8 9 10 8 5 7 11 15 11 10 10 6 5 5 6 9 14 14 9 8 7 5 4 2 4 4 7 6 6 7 8 4 5 28 41 18 24 25 32
10 9 7 7 8 8 7 8 11 11 10 12 13 8 7 7 5 6 7 15 15 9 10 8 4 3 3 3 5 7 7 5 6 7 7 4 4 28 45 16 25 25 35 20
10 11 11 12 12 13 12 10 9 11 10 6 8 8 7 4 7 16 15 10 11 8 5 3 2 4 6 7 7 7 5 7 8 5 4 6 33 44 13 24 23 35 24 38
14 13 12 13 10 9 10 9 8 7 8 9 8 6 9 18 14 10 10 7 6 3 4 5 5 5 6 6 4 5 7 7 3 4 8 41 40 9 26 23 28 37 27 27
13 13 12 9 9 9 9 9 11 11 10 9 15 19 13 11 8 6 6 5 4 4 2 5 5 7 5 5 6 7 6 2 6 7 57 29 8 29 24 27 31 28 36 20
11 12 12 12 12 12 13 12 11 15 19 14 11 8 5 7 5 -1 -1 3 7 3 3 8 6 6 5 7 6 3 1 9 14 56 20 11 30 26 30 25 26 31 21 27
12 16 17 17 18 17 17 15 12 9 6 5 6 7 5 1 0 5 6 3 6 7 2 5 7 8 8 6 2 2 10 33 42 12 18 28 26 27 27 20 23 33 29 15
12 8 7 8 9 9 5 5 5 5 6 4 3 5 6 6 4 3 9 5 2 7 7 6 8 8 4 1 5 8 47 32 8 25 24 25 26 32 36 28 36 26 23 14
Height
5557 5559 5560 5568 5571 5577 5581 5591 5595 5603 5612 5621 5629 5639 5643 5649 5654 5659 5662 5664 5667 5671 5673 5674 5675 5676 5677 5676 5676 5675 5673 5671 5669 5667 5663 5659 5655 5650 5645 5639 5633 5626 5619 5609
5564 5567 5570 5573 5578 5582 5585 5588 5594 5602 5610 5614 5633 5639 5644 5648 5652 5655 5658 5660 5663 5666 5667 5668 5669 5669 5669 5669 5668 5667 5665 5663 5661 5658 5654 5650 5645 5639 5633 5627 5620 5613 5604 5595
5570 5573 5574 5576 5580 5584 5585 5592 5598 5607 5611 5627 5634 5639 5642 5646 5648 5651 5654 5657 5659 5661 5661 5662 5663 5663 5662 5662 5660 5659 5658 5655 5652 5648 5644 5639 5634 5628 5622 5615 5607 5598 5588 5578
5576 5577 5581 5582 5583 5586 5593 5599 5603 5612 5621 5627 5632 5636 5639 5642 5645 5648 5650 5652 5655 5656 5656 5656 5656 5656 5655 5654 5653 5652 5650 5647 5642 5638 5633 5628 5623 5617 5610 5602 5593 5583 5573 5564
5581 5582 5585 5587 5590 5593 5598 5604 5607 5613 5620 5625 5629 5632 5637 5639 5641 5644 5646 5647 5648 5649 5650 5650 5649 5649 5648 5647 5646 5643 5640 5636 5632 5628 5623 5618 5612 5605 5598 5589 5579 5570 5559 5549
5584 5587 5589 5592 5594 5597 5601 5605 5608 5613 5617 5621 5625 5629 5632 5634 5637 5639 5641 5642 5642 5643 5643 5643 5643 5642 5641 5639 5637 5634 5631 5627 5623 5618 5612 5607 5600 5593 5584 5575 5567 5557 5546 5535
5585 5588 5591 5593 5595 5598 5601 5608 5607 5610 5613 5617 5621 5625 5628 5630 5631 5633 5634 5635 5636 5637 5637 5637 5636 5635 5634 5632 5629 5626 5622 5618 5613 5607 5602 5595 5587 5579 5571 5563 5554 5544 5535 5521
5585 5587 5591 5592 5595 5598 5600 5602 5605 5608 5611 5614 5617 5621 5623 5624 5626 5627 5628 5629 5630 5630 5630 5629 5629 5627 5625 5623 5620 5616 5612 5608 5603 5597 5590 5582 5574 5566 5558 5551 5541 5531 5520 5508
5587 5588 5589 5591 5593 5595 5598 5600 5603 5605 5607 5610 5613 5615 5617 5618 5619 5621 5622 5623 5623 5622 5622 5621 5620 5618 5616 5614 5610 5607 5602 5597 5591 5584 5577 5570 5563 5555 5547 5537 5528 5518 5507 5494
5585 5588 5589 5591 5592 5594 5596 5599 5601 5603 5605 5607 5608 5610 5612 5613 5615 5616 5616 5616 5616 5615 5615 5614 5612 5610 5607 5604 5600 5596 5591 5586 5579 5573 5566 5559 5552 5543 5534 5524 5514 5502 5490 5477
5582 5584 5587 5589 5591 5593 5596 5597 5599 5601 5602 5603 5605 5607 5608 5609 5610 5611 5611 5610 5610 5609 5608 5606 5603 5601 5599 5595 5591 5586 5581 5575 5569 5562 5555 5547 5539 5531 5521 5509 5498 5486 5472 5456
5578 5582 5584 5587 5589 5591 5593 5594 5596 5597 5599 5600 5602 5603 5604 5605 5605 5605 5605 5605 5604 5603 5601 5598 5596 5593 5590 5586 5581 5576 5570 5565 5558 5551 5544 5536 5528 5517 5504 5494 5480 5466 5450 5433
5575 5578 5581 5583 5585 5586 5589 5590 5592 5594 5596 5598 5599 5600 5601 5601 5601 5601 5601 5599 5597 5595 5593 5590 5588 5585 5580 5576 5571 5566 5560 5554 5547 5540 5533 5525 5515 5506 5496 5480 5462 5446 5431 5415
5569 5572 5576 5578 5581 5583 5585 5587 5589 5592 5594 5595 5596 5597 5597 5597 5596 5595 5593 5591 5589 5587 5585 5582 5579 5575 5571 5566 5561 5555 5549 5543 5537 5529 5521 5512 5503 5492 5480 5466 5452 5434 5414 5398
5568 5570 5573 5576 5577 5580 5583 5586 5588 5589 5590 5591 5591 5591 5591 5590 5589 5587 5585 5583 5581 5579 5577 5574 5570 5566 5561 5556 5551 5545 5539 5532 5525 5517 5508 5500 5489 5477 5463 5449 5433 5417 5401 5385
5565 5568 5571 5574 5576 5578 5581 5583 5584 5585 5586 5586 5585 5585 5584 5583 5581 5579 5578 5576 5574 5571 5568 5564 5560 5556 5551 5546 5541 5535 5528 5521 5513 5505 5495 5484 5472 5459 5445 5431 5416 5401 5385 5373
5564 5567 5569 5571 5573 5575 5577 5579 5579 5580 5580 5579 5579 5578 5577 5575 5573 5572 5570 5568 5565 5562 5559 5555 5551 5546 5541 5536 5530 5524 5517 5509 5501 5491 5481 5469 5456 5442 5428 5414 5400 5385 5370 5359
5561 5563 5566 5568 5569 5571 5572 5572 5573 5573 5572 5572 5571 5570 5568 5567 5565 5563 5562 5560 5557 5553 5549 5545 5541 5536 5531 5526 5519 5513 5505 5497 5487 5477 5465 5453 5439 5425 5412 5398 5383 5370 5359 5348
5557 5559 5561 5562 5563 5564 5565 5565 5566 5565 5564 5564 5563 5562 5560 5559 5557 5555 5553 5551 5547 5544 5540 5536 5532 5527 5521 5515 5508 5501 5493 5484 5473 5462 5450 5437 5423 5408 5395 5381 5368 5357 5348 5340
5552 5553 5554 5555 5557 5557 5558 5558 5558 5557 5557 5556 5555 5554 5553 5551 5549 5547 5545 5542 5539 5535 5531 5527 5522 5516 5510 5504 5497 5489 5480 5470 5459 5446 5433 5420 5407 5393 5379 5366 5356 5346 5338 5331
5544 5546 5547 5549 5550 5551 5551 5550 5550 5550 5549 5549 5548 5547 5545 5543 5541 5539 5537 5534 5530 5526 5522 5517 5511 5506 5500 5493 5485 5476 5466 5454 5442 5429 5417 5404 5391 5377 5364 5353 5344 5336 5330 5325
5537 5539 5540 5542 5542 5543 5543 5543 5543 5543 5542 5541 5541 5540 5538 5536 5534 5531 5528 5525 5521 5517 5513 5508 5503 5496 5489 5481 5472 5462 5450 5438 5426 5413 5400 5387 5375 5362 5352 5342 5334 5327 5323 5321
5531 5532 5533 5534 5535 5535 5536 5536 5536 5536 5536 5535 5534 5533 5531 5528 5526 5523 5520 5517 5513 5509 5504 5499 5492 5485 5476 5467 5457 5445 5434 5423 5410 5397 5383 5371 5359 5351 5342 5333 5326 5320 5318 5318
5524 5525 5526 5527 5528 5529 5529 5530 5530 5529 5529 5528 5526 5524 5522 5520 5518 5515 5512 5509 5504 5500 5494 5487 5480 5471 5461 5451 5441 5430 5419 5407 5394 5380 5366 5355 5348 5339 5332 5325 5320 5316 5315 5316
5517 5518 5519 5520 5521 5522 5522 5522 5522 5522 5521 5520 5518 5517 5515 5513 5511 5507 5504 5499 5494 5489 5482 5474 5465 5456 5447 5437 5426 5415 5403 5390 5376 5363 5352 5343 5335 5328 5323 5319 5316 5314 5314 5316
5510 5511 5512 5513 5514 5514 5514 5515 5515 5515 5514 5512 5511 5509 5507 5504 5501 5497 5493 5489 5483 5476 5468 5460 5451 5442 5432 5422 5410 5398 5385 5372 5359 5348 5339 5330 5323 5318 5314 5313 5312 5312 5314 5316
5503 5504 5505 5506 5507 5507 5508 5508 5508 5507 5506 5504 5503 5501 5498 5495 5491 5487 5482 5476 5469 5462 5454 5446 5437 5428 5418 5407 5394 5380 5367 5355 5346 5337 5327 5319 5312 5307 5305 5306 5307 5310 5314 5318